Regional Weather Roundup
Issued by NWS Newport/Morehead, NC

Current Version | Previous Version | Graphics & Text | Print | Product List | Glossary On
Versions: 1 2 3 4 5 6 7 8 9 10 11 12 13 14 15 16 17 18 19 20 21 22 23 24 25 26 27 28 29 30 31 32 33 34 35 36 37 38 39 40 41 42 43 44 45 46 47 48 49 50
000 ASUS42 KMHX 251125 RWRMHX WEATHER ROUNDUP FOR EASTERN NORTH CAROLINA NATIONAL WEATHER SERVICE NEWPORT/MOREHEAD CITY NC 700 AM EDT SUN JUN 25 2017 NOTE: "FAIR" INDICATES FEW OR NO CLOUDS BELOW 12,000 FEET WITH NO SIGNIFICANT WEATHER AND/OR OBSTRUCTIONS TO VISIBILITY NCZ015>017-031-032-045>047-102-103-251200- NORTH COAST CITY SKY/WX TMP DP RH WIND PRES REMARKS EDENTON CLOUDY 75 72 89 NW6 30.03R ELIZABETH CITY CLOUDY 73 73 100 W7 30.02R KITTY HAWK CLOUDY 76 76 100 W5 30.00R MANTEO CLOUDY 74 73 93 W6 30.02R $$ NCZ045>047-081-094-103-104-251200- CENTRAL COAST CITY SKY/WX TMP DP RH WIND PRES REMARKS FRISCO CLOUDY 77 74 90 SW9 30.02R FOG $$ NCZ095-097-098-100-101-251200- SOUTHERN COAST CITY SKY/WX TMP DP RH WIND PRES REMARKS BEAUFORT CLOUDY 79 78 97 W9 30.02R CEDAR ISLAND NOT AVBL JACKSONVILLE CLOUDY 75 75 100 W3 30.02R PINEY ISLAND CLOUDY N/A N/A N/A SW7 30.02R WILMINGTON CLOUDY 77 75 93 SW6 30.03S $$ NCZ011>013-027>030-043-044-078>080-089-090>093-098-251200- COASTAL PLAIN CITY SKY/WX TMP DP RH WIND PRES REMARKS AHOSKIE N/A 70 69 99 CALM 30.03R FOG CLINTON CLOUDY 75 75 100 CALM 30.03S FOG ELIZABETHTOWN NOT AVBL GOLDSBORO CLOUDY 73 73 100 CALM 30.01S GREENVILLE CLOUDY 72 72 100 CALM 30.04F HAVELOCK CLOUDY 75 74 96 SW5 30.03R KENANSVILLE CLOUDY 75 73 94 CALM 30.03F FOG KINSTON CLOUDY 73 73 100 CALM 30.04S FOG NEW BERN CLOUDY 75 75 100 CALM 30.03S RICHLANDS CLOUDY 75 74 96 SW5 30.03S ROCKY MOUNT CLOUDY 71 71 100 CALM 30.03R WASHINGTON PTSUNNY N/A N/A N/A CALM 30.03S WHITEVILLE CLOUDY 75 73 93 CALM 30.03S $$ AMZ130-135-150-152-154-156-158-170-250-252-270-ANZ085-086-088-633-658-670-251200- MARINE OBSERVATIONS STATION/POSITION TIME TEMP WIND PRES WAVE SWELL AIR SEA DIR/SP/G HT/PER HT/PER (UTC) (F) (DEG/KT/KT) (MB) (FT/S) (FT/S) CHESAPEAKE LIGHT NOT AVBL 64 E VA BEACH 1050 73 72 280/ 8/ 10 1015.9 4/ 7 3/ 7 DUCK 1100 75 59 280/ 10/ 14 1015.7 2 E DUCK NOT AVBL OREGON INLET 1100 76 78 250/ 9/ 11 1016.3 13E OREGON INLT 1048 74 N/A 3/ 6 3/ 6 HATTERAS CG 1100 76 78 230/ 8/ 10 1016.4 DIAMOND BUOY 1050 79 80 250/ 17/ 21 1016.0 6/ 7 2/ 9 CAPE LOOKOUT 1100 79 240/ 6/ 9 1016.4 BEAUFORT LAB 1100 79 78 240/ 3/ 7 1016.1 30 SE NEW RVR IN 1108 80 80 230/ 14/ 17 1016.9 30 SE NEW RVR IN 1043 80 N/A 5/ 6 27 SE WRIGHTSVLE 1108 79 80 220/ 14/ 19 1016.1 5 SE WRIGHTSVLE 1108 78 79 290/ 10/ 14 1016.7 225 S CAPE HAT 1050 80 80 220/ 12/ 14 1020.1 4/ 6 3/ 6 41 SE CHARLESTON 1110 81 220/ 17/ 21 1017.0 $$

USA.gov is the U.S. government's official web portal to all federal, state and local government web resources and services.